Hourly Data Report for October 16, 2014

All times are specified in Local Standard Time (LST). Add 1 hour to adjust for Daylight Saving Time where and when it is observed.

RANKIN INLET A
NUNAVUT

62°48'38.000" N
92°06'53.000" W
32.30 m
2303405
71083
YRT

Download Data

Hourly Data (October 2014)
Hourly Data Report for October 16, 2014
Temp Definition
°C
Dew Point Temp Definition
°C
Rel Hum Definition
%
Wind Dir Definition
10's deg

Wind Spd Definition
km/h
Visibility Definition
km
Stn Press Definition
kPa
Hmdx Definition


Wind Chill Definition


Weather Definition


TIME
00:00 Legend Double Dagger -6.9 -8.1 91 36 18 24.1 101.18   -14 Mostly Cloudy
01:00 Legend Double Dagger -7.3 -8.5 91 36 23 24.1 101.23   -15 LegendNANA
02:00 Legend Double Dagger -7.5 -8.9 90 36 22 24.1 101.30   -15 LegendNANA
03:00 Legend Double Dagger -6.8 -8.6 87 1 26 24.1 101.35   -15 Mainly Clear
04:00 Legend Double Dagger -7.5 -9.3 87 35 18 24.1 101.43   -14 LegendNANA
05:00 Legend Double Dagger -6.3 -7.8 89 1 22 24.1 101.50   -14 LegendNANA
06:00 Legend Double Dagger -6.3 -8.0 88 1 23 24.1 101.57   -14 Mainly Clear
07:00 Legend Double Dagger -5.8 -7.3 89 2 26 24.1 101.61   -14 LegendNANA
08:00 Legend Double Dagger -5.6 -7.7 85 2 30 24.1 101.71   -14 LegendNANA
09:00 Legend Double Dagger -4.7 -6.9 85 2 31 24.1 101.74   -13 Mostly Cloudy
10:00 Legend Double Dagger -3.9 -6.9 80 1 40 24.1 101.75   -13 LegendNANA
11:00 Legend Double Dagger -3.3 -6.1 81 36 32 24.1 101.83   -11 LegendNANA
12:00 Legend Double Dagger -2.7 -6.5 75 36 32 24.1 101.84   -10 Mostly Cloudy
13:00 Legend Double Dagger -2.5 -6.9 72 36 35 24.1 101.90   -10 LegendNANA
14:00 Legend Double Dagger -2.7 -7.6 69 35 30 24.1 101.95   -10 LegendNANA
15:00 Legend Double Dagger -3.1 -7.1 74 34 26 24.1 102.01   -10 Mostly Cloudy
16:00 Legend Double Dagger -3.2 -6.9 76 35 28 24.1 102.06   -10 LegendNANA
17:00 Legend Double Dagger -3.2 -6.7 77 33 26 24.1 102.11   -10 LegendNANA
18:00 Legend Double Dagger -3.3 -7.3 74 34 31 24.1 102.13   -11 Mostly Cloudy
19:00 Legend Double Dagger -3.0 -7.0 74 35 21 24.1 102.17   -9 LegendNANA
20:00 Legend Double Dagger -3.2 -6.0 81 32 18 24.1 102.18   -9 LegendNANA
21:00 Legend Double Dagger -3.3 -6.1 81 32 20 24.1 102.20   -9 Cloudy
22:00 Legend Double Dagger -3.3 -5.9 82 33 23 24.1 102.20   -10 LegendNANA
23:00 Legend Double Dagger -3.8 -6.3 83 36 18 24.1 102.23   -10 LegendNANA

Notes on Data Quality.

Legend

  • E = Estimated
  • M = Missing
  • NA = Not Available
  • ‡ = Partner data that is not subject to review by the National Climate Archives
Date modified: